KG2V Weather Reports


time (UTC)temp
F
wind
direction
speed
knots
gust
knots
rain 1hr
in
rain 24hr
in
rain mn
in
humidity
%
barometer
mb
20260504045308 48 179 0.0 0.0 0.00 0.00 0.00 65 1004.7
20260504044806 49 179 0.0 0.0 0.00 0.00 0.00 64 1004.8
20260504044303 49 179 0.0 0.0 0.00 0.00 0.00 63 1004.9
20260504043800 50 179 0.0 0.0 0.00 0.00 0.00 62 1004.7
20260504043257 49 178 0.0 0.9 0.00 0.00 0.00 62 1004.6
20260504042755 49 183 0.0 0.9 0.00 0.00 0.00 63 1004.8
20260504042251 50 173 0.0 0.0 0.00 0.00 0.00 62 1004.6
20260504041747 50 174 0.0 0.0 0.00 0.00 0.00 60 1004.5
20260504041243 50 187 0.0 0.0 0.00 0.00 0.00 60 1004.7
20260504040739 50 186 0.0 0.0 0.00 0.00 0.00 62 1004.6
20260504040237 50 176 0.0 0.0 0.00 0.00 0.00 62 1004.7
20260504035733 51 181 0.0 0.0 0.00 0.00 0.00 60 1004.9
20260504035231 51 181 0.0 0.0 0.00 0.00 0.00 60 1004.7
20260504034729 51 179 0.0 0.0 0.00 0.00 0.00 60 1004.7
20260504034226 52 186 0.0 0.0 0.00 0.00 0.00 58 1004.8
20260504033723 52 173 0.0 0.9 0.00 0.00 0.00 58 1004.6
20260504033220 53 171 0.0 0.0 0.00 0.00 0.00 57 1004.8
20260504032712 53 199 0.9 0.9 0.00 0.00 0.00 55 1004.8
20260504032209 53 192 0.9 0.9 0.00 0.00 0.00 55 1004.6
20260504031705 53 193 2.6 2.6 0.00 0.00 0.00 54 1004.7
20260504031203 54 220 1.7 1.7 0.00 0.00 0.00 55 1004.8
20260504030658 54 194 0.9 0.9 0.00 0.00 0.00 54 1004.8
20260504030155 54 221 0.9 1.7 0.00 0.00 0.00 55 1004.8
20260504025652 54 212 0.9 1.7 0.00 0.00 0.00 54 1004.7
20260504025148 54 221 0.9 1.7 0.00 0.00 0.00 55 1004.7
20260504024646 54 238 2.6 2.6 0.00 0.00 0.00 54 1004.6
20260504024142 54 188 1.7 1.7 0.00 0.00 0.00 54 1004.8
20260504023639 53 204 2.6 3.5 0.00 0.00 0.00 54 1004.8
20260504023136 53 185 1.7 2.6 0.00 0.00 0.00 54 1005.1
20260504022632 53 227 1.7 2.6 0.00 0.00 0.00 55 1004.8
20260504022128 53 237 2.6 3.5 0.00 0.00 0.00 56 1004.9
20260504021626 53 227 0.9 0.9 0.00 0.00 0.00 57 1005.0
20260504021122 53 204 0.9 0.9 0.00 0.00 0.00 56 1005.0
20260504020620 53 189 1.7 1.7 0.00 0.00 0.00 55 1004.9
20260504020115 53 191 1.7 2.6 0.00 0.00 0.00 56 1005.0
20260504015612 53 212 1.7 2.6 0.00 0.00 0.00 56 1005.1
20260504015109 53 205 2.6 2.6 0.00 0.00 0.00 56 1005.1
20260504014604 53 269 3.5 3.5 0.00 0.00 0.00 55 1004.9
20260504014101 53 271 2.6 3.5 0.00 0.00 0.00 56 1005.1
20260504013559 53 163 0.9 0.9 0.00 0.00 0.00 60 1005.2
20260504013056 53 235 2.6 3.5 0.00 0.00 0.00 57 1005.1
20260504012553 53 193 2.6 3.5 0.00 0.00 0.00 59 1004.9
20260504012051 53 247 2.6 2.6 0.00 0.00 0.00 60 1005.1
20260504011548 52 207 1.7 2.6 0.00 0.00 0.00 62 1005.3
20260504011044 52 210 0.9 0.9 0.00 0.00 0.00 65 1005.2
20260504010539 52 182 0.0 0.0 0.00 0.00 0.00 65 1005.2
20260504010036 51 186 0.9 0.9 0.00 0.00 0.00 67 1005.5
20260504005533 51 199 0.9 0.9 0.00 0.00 0.00 67 1005.4
20260504005030 52 198 0.0 0.0 0.00 0.00 0.00 66 1005.5
20260504004528 51 207 0.9 0.9 0.00 0.00 0.00 66 1005.4
20260504004025 51 200 0.0 0.0 0.00 0.00 0.00 67 1005.3
20260504003521 51 237 1.7 1.7 0.00 0.00 0.00 66 1005.2
20260504003018 51 177 0.0 0.9 0.00 0.00 0.00 67 1005.3
20260504002515 51 147 0.9 1.7 0.00 0.00 0.00 69 1005.3
20260504002012 51 185 0.0 0.0 0.00 0.00 0.00 70 1005.5
20260504001509 51 188 0.0 0.0 0.00 0.00 0.00 72 1005.7
20260504001006 50 193 1.7 1.7 0.00 0.00 0.00 72 1005.7
20260504000503 50 201 0.0 0.0 0.00 0.00 0.00 73 1005.9
20260504000000 50 190 0.0 0.9 0.00 0.00 0.00 74 1005.7
20260503235458 50 190 0.0 0.9 0.00 0.00 0.00 73 1005.6
20260503234955 50 168 0.9 0.9 0.00 0.00 0.00 73 1005.7
20260503234452 50 214 0.9 0.9 0.00 0.00 0.00 73 1005.6
20260503233950 51 197 0.9 0.9 0.00 0.00 0.00 72 1005.4
20260503233447 51 189 1.7 2.6 0.00 0.00 0.00 72 1005.5
20260503232943 51 228 0.9 1.7 0.00 0.00 0.00 71 1005.6
20260503232440 51 177 0.9 1.7 0.00 0.00 0.00 70 1005.8
20260503231938 51 224 1.7 2.6 0.00 0.00 0.00 70 1005.3
20260503231435 52 250 2.6 2.6 0.00 0.00 0.00 67 1005.5
20260503230931 52 256 4.3 6.1 0.00 0.00 0.00 65 1005.5
20260503230428 53 216 3.5 5.2 0.00 0.00 0.00 61 1005.5
20260503225926 53 177 4.3 6.1 0.00 0.00 0.00 58 1005.5
20260503225422 54 255 4.3 5.2 0.00 0.00 0.00 56 1005.3
20260503224918 53 287 2.6 3.5 0.00 0.00 0.00 57 1005.3
20260503224415 53 187 3.5 3.5 0.00 0.00 0.00 57 1005.2
20260503223913 53 187 5.2 7.0 0.00 0.00 0.00 57 1005.1
20260503223411 53 207 4.3 7.0 0.00 0.00 0.00 56 1004.9
20260503222910 53 210 4.3 5.2 0.00 0.00 0.00 55 1005.1
20260503222409 53 251 3.5 5.2 0.00 0.00 0.00 55 1004.8
20260503221907 54 211 2.6 2.6 0.00 0.00 0.00 55 1005.0
20260503221405 54 269 2.6 2.6 0.00 0.00 0.00 54 1005.0
20260503220901 54 178 7.8 9.6 0.00 0.00 0.00 52 1005.1
20260503220358 54 246 3.5 3.5 0.00 0.00 0.00 52 1005.0
20260503215855 55 192 5.2 7.0 0.00 0.00 0.00 50 1005.2
20260503215352 55 185 5.2 7.8 0.00 0.00 0.00 50 1004.9
20260503214849 55 253 3.5 5.2 0.00 0.00 0.00 50 1005.0
20260503214347 55 292 2.6 2.6 0.00 0.00 0.00 50 1004.8
20260503213844 56 163 2.6 2.6 0.00 0.00 0.00 50 1005.0
20260503213342 55 250 2.6 3.5 0.00 0.00 0.00 50 1005.2
20260503212838 55 262 2.6 3.5 0.00 0.00 0.00 50 1005.1
20260503212336 55 230 4.3 5.2 0.00 0.00 0.00 51 1004.9
20260503211833 55 264 3.5 3.5 0.00 0.00 0.00 50 1005.0
20260503211330 55 270 2.6 2.6 0.00 0.00 0.00 51 1005.2
20260503210826 55 217 3.5 5.2 0.00 0.00 0.00 49 1005.1
20260503210323 55 225 2.6 2.6 0.00 0.00 0.00 51 1005.1
20260503205818 55 184 3.5 6.1 0.00 0.00 0.00 48 1005.0
20260503205315 56 237 4.3 6.1 0.00 0.00 0.00 47 1005.2
20260503204811 56 141 3.5 5.2 0.00 0.00 0.00 48 1005.1
20260503204309 56 204 6.1 7.8 0.00 0.00 0.00 47 1004.8
20260503203806 56 195 4.3 5.2 0.00 0.00 0.00 47 1004.9
20260503203304 56 233 3.5 5.2 0.00 0.00 0.00 48 1005.1
20260503202800 56 222 8.7 11.3 0.00 0.00 0.00 46 1005.5
20260503202258 56 288 5.2 7.8 0.00 0.00 0.00 46 1005.2
20260503201756 56 209 3.5 6.1 0.00 0.00 0.00 46 1005.4
20260503201253 57 237 6.1 7.8 0.00 0.00 0.00 44 1005.4
20260503200750 57 238 3.5 5.2 0.00 0.00 0.00 44 1005.2
20260503200245 57 282 4.3 5.2 0.00 0.00 0.00 44 1005.1
20260503195742 57 257 4.3 6.1 0.00 0.00 0.00 43 1005.4
20260503195239 57 265 1.7 1.7 0.00 0.00 0.00 45 1005.6
20260503194737 57 231 0.9 0.9 0.00 0.00 0.00 47 1005.6
20260503194232 56 171 5.2 6.1 0.00 0.00 0.00 43 1005.6
20260503193729 56 248 3.5 5.2 0.00 0.00 0.00 43 1006.0
20260503193225 56 249 3.5 6.1 0.00 0.00 0.00 42 1005.9
20260503192721 57 255 4.3 5.2 0.00 0.00 0.00 42 1006.0
20260503192216 56 192 3.5 6.1 0.00 0.00 0.00 43 1006.4
20260503191713 56 225 4.3 5.2 0.00 0.00 0.00 40 1006.3
20260503191210 57 234 3.5 6.1 0.00 0.00 0.00 42 1006.3
20260503190707 57 189 3.5 5.2 0.00 0.00 0.00 41 1006.4
20260503190204 56 220 5.2 7.0 0.00 0.00 0.00 43 1006.5
20260503185701 56 258 3.5 6.1 0.00 0.00 0.00 42 1006.5
20260503185156 56 223 5.2 6.1 0.00 0.00 0.00 43 1006.8
20260503184651 55 211 2.6 2.6 0.00 0.00 0.00 45 1006.6
20260503184148 55 254 4.3 6.1 0.00 0.00 0.00 42 1006.9
20260503183644 54 161 1.7 5.2 0.00 0.00 0.00 44 1007.2
20260503183142 53 199 3.5 3.5 0.00 0.00 0.00 42 1007.1
20260503182640 55 221 3.5 3.5 0.00 0.00 0.00 43 1007.1
20260503182139 56 203 1.7 2.6 0.00 0.00 0.00 42 1007.2
20260503181635 55 193 0.9 1.7 0.00 0.00 0.00 44 1007.2
20260503181131 54 229 1.7 2.6 0.00 0.00 0.00 44 1007.2
20260503180628 57 205 4.3 6.1 0.00 0.00 0.00 43 1007.5
20260503180126 55 262 3.5 5.2 0.00 0.00 0.00 44 1007.5
20260503175623 55 206 3.5 5.2 0.00 0.00 0.00 41 1007.4
20260503175120 54 244 1.7 2.6 0.00 0.00 0.00 45 1007.6
20260503174616 54 252 4.3 5.2 0.00 0.00 0.00 44 1007.7
20260503174114 55 248 3.5 6.1 0.00 0.00 0.00 44 1007.4
20260503173608 55 279 1.7 2.6 0.00 0.00 0.00 46 1007.4
20260503173105 54 269 3.5 3.5 0.00 0.00 0.00 46 1007.5
20260503172602 54 195 0.9 0.9 0.00 0.00 0.00 48 1007.7
20260503172100 55 216 3.5 5.2 0.00 0.00 0.00 46 1007.5
20260503171556 54 289 2.6 5.2 0.00 0.00 0.00 49 1007.6
20260503171054 54 250 1.7 2.6 0.00 0.00 0.00 49 1007.7
20260503170549 53 225 1.7 2.6 0.00 0.00 0.00 51 1007.9
20260503150942 50 228 2.6 2.6 0.00 0.00 0.00 57 1008.9
20260503150439 50 249 3.5 6.1 0.00 0.00 0.00 58 1008.9
20260503131332 44 219 2.6 2.6 0.00 0.00 0.00 68 1009.9
20260503130829 44 186 0.0 0.9 0.00 0.00 0.00 68 1009.7
20260503130327 43 271 2.6 3.5 0.00 0.00 0.00 69 1009.8
20260503110709 35 194 0.9 0.9 0.00 0.00 0.00 87 1009.9
20260503110206 34 193 0.0 0.9 0.00 0.00 0.00 89 1009.7
20260503100133 33 208 0.0 0.0 0.00 0.00 0.00 93 1009.5
20260503081516 34 199 0.0 0.0 0.00 0.00 0.00 92 1009.4
20260503081014 34 199 0.0 0.0 0.00 0.00 0.00 92 1009.5
20260503080509 34 199 0.0 0.0 0.00 0.00 0.00 91 1009.8
20260503072443 35 199 0.0 0.0 0.00 0.00 0.00 88 1009.5
20260503071940 35 199 0.0 0.0 0.00 0.00 0.00 88 1009.5
20260503071437 35 199 0.0 0.0 0.00 0.00 0.00 88 1009.5
20260503070933 35 199 0.0 0.0 0.00 0.00 0.00 88 1009.7
20260503070430 35 199 0.0 0.0 0.00 0.00 0.00 88 1009.5
20260503054844 38 198 0.0 0.0 0.00 0.00 0.00 81 1009.9
20260503054339 38 198 0.0 0.0 0.00 0.00 0.00 80 1010.1
20260503053838 38 193 0.0 0.0 0.00 0.00 0.00 80 1009.9
20260503053335 39 191 0.9 0.9 0.00 0.00 0.00 80 1010.0
20260503052831 39 184 0.0 0.0 0.00 0.00 0.00 80 1010.0
20260503052328 39 184 0.0 0.0 0.00 0.00 0.00 80 1010.0
20260503051824 39 175 0.0 0.0 0.00 0.00 0.00 80 1010.1
20260503051321 39 174 0.0 0.0 0.00 0.00 0.00 80 1010.1
20260503050818 39 184 0.0 0.0 0.00 0.00 0.00 79 1010.3
20260503050314 39 204 0.9 0.9 0.00 0.00 0.00 79 1010.4
20260503045812 39 192 0.9 0.9 0.00 0.00 0.00 79 1010.3